Vancouver, WA
on Saturday, February 2, 2013

Saturday
Previous Day Next Day
Daily Summary
 ActualAverageRecord
Temperature
Mean Temperature °F 43°F  
Max Temperature 55°F 50°F 58°F (1958)
Min Temperature 30°F 36°F -2°F (1950)
Degree Days
Heating Degree Days 22    
Month to date heating degree days 43  
Since 1 July heating degree days 2466  
Cooling Degree Days 0    
Month to date cooling degree days 0  
Year to date cooling degree days 0  
Moisture
Dew Point 34°F   
Average Humidity 77    
Maximum Humidity 100    
Minimum Humidity 54    
Precipitation
Precipitation 0.01 in 0.18 in 1.23 in (1916)
Month to date precipitation 0.01 0.35  
Year to date precipitation 3.41 5.85  
Snow
Snow 0.00 in in in ()
Month to date snowfall 0.0  
Snow Depth 0.00 in   
Wind
Wind Speed 2 mph   
Max Wind Speed 12 mph   
Max Gust Speed 15 mph   
Visibility 3 miles   
Events Fog   

Key: T is trace of precipitation, MM is missing value
Source: NWS Daily Summary
Time(PST)TemperatureDew PointHumidity Pressure Visibility Wind DirectionWind SpeedGust SpeedPrecipitationEvents Conditions
1:31 AM 37.4°F 35.6°F 93% 30.31 in 2.0 miles Calm Calm - N/A   Clear
1:40 AM 35.6°F 33.8°F 93% 30.32 in 1.2 miles Calm Calm - N/A   Clear
1:53 AM 33.1°F 32.0°F 96% 30.32 in 0.8 miles Calm Calm - 0.01 in   Mist
2:04 AM 35.6°F 33.8°F 93% 30.32 in 0.2 miles Calm Calm - N/A Fog Fog
2:10 AM 35.6°F 33.8°F 93% 30.32 in 1.2 miles Calm Calm - N/A   Scattered Clouds
2:19 AM 33.8°F 33.8°F 100% 30.32 in 0.8 miles Calm Calm - N/A   Mist
2:42 AM 33.8°F 33.8°F 100% 30.32 in 1.0 miles Calm Calm - N/A   Mist
2:51 AM 33.8°F 32.0°F 93% 30.32 in 1.5 miles Calm Calm - N/A   Partly Cloudy
2:53 AM 33.1°F 32.0°F 96% 30.32 in 1.5 miles Calm Calm - N/A   Partly Cloudy
2:56 AM 32.0°F 30.2°F 93% 30.32 in 1.0 miles Calm Calm - N/A   Mist
3:02 AM 33.8°F 30.2°F 87% 30.32 in 0.8 miles Calm Calm - N/A   Clear
3:09 AM 32.0°F 30.2°F 93% 30.32 in 0.5 miles Calm Calm - N/A Fog Fog
3:21 AM 32.0°F 30.2°F 93% 30.31 in 1.2 miles Calm Calm - N/A   Partly Cloudy
3:27 AM 32.0°F 30.2°F 93% 30.31 in 0.8 miles Calm Calm - N/A   Mist
3:36 AM 30.2°F 30.2°F 100% 30.31 in 1.0 miles Calm Calm - N/A   Clear
3:39 AM 30.2°F 30.2°F 100% 30.31 in 2.0 miles Calm Calm - N/A   Clear
4:03 AM 33.8°F 32.0°F 93% 30.30 in 2.5 miles Calm Calm - N/A   Scattered Clouds
4:06 AM 30.2°F 30.2°F 100% 30.30 in 1.5 miles Calm Calm - N/A   Mostly Cloudy
4:16 AM 32.0°F 30.2°F 93% 30.30 in 3.0 miles Calm Calm - N/A   Mostly Cloudy
4:28 AM 33.8°F 32.0°F 93% 30.30 in 1.8 miles Calm Calm - N/A   Overcast
4:36 AM 33.8°F 32.0°F 93% 30.30 in 0.8 miles Calm Calm - N/A   Mist
4:53 AM 35.1°F 34.0°F 96% 30.30 in 0.2 miles Calm Calm - N/A Fog Fog
5:29 AM 35.6°F 35.6°F 100% 30.30 in 0.2 miles Calm Calm - N/A Fog Fog
5:51 AM 35.6°F 35.6°F 100% 30.29 in 0.2 miles Calm Calm - N/A Fog Fog
5:53 AM 36.0°F 35.1°F 97% 30.29 in 0.2 miles Calm Calm - N/A Fog Fog
6:17 AM 35.6°F 33.8°F 93% 30.29 in 0.5 miles Calm Calm - N/A Fog Fog
6:23 AM 35.6°F 33.8°F 93% 30.29 in 1.5 miles Calm Calm - N/A   Mostly Cloudy
6:26 AM 35.6°F 33.8°F 93% 30.29 in 4.0 miles Calm Calm - N/A   Mostly Cloudy
6:53 AM 34.0°F 33.1°F 96% 30.29 in 3.0 miles Calm Calm - N/A   Overcast
7:01 AM 33.8°F 32.0°F 93% 30.29 in 1.8 miles Calm Calm - N/A   Overcast
7:04 AM 33.8°F 33.8°F 100% 30.29 in 0.8 miles Calm Calm - N/A   Overcast
7:11 AM 33.8°F 33.8°F 100% 30.30 in 0.2 miles Calm Calm - N/A Fog Fog
7:25 AM 33.8°F 32.0°F 93% 30.30 in 0.5 miles Calm Calm - N/A Fog Fog
7:31 AM 33.8°F 33.8°F 100% 30.30 in 0.2 miles Calm Calm - N/A Fog Fog
7:53 AM 34.0°F 33.1°F 96% 30.30 in 0.2 miles Calm Calm - N/A Fog Fog
8:29 AM 33.8°F 32.0°F 93% 30.31 in 1.0 miles North 3.5 mph - N/A   Mist
8:32 AM 33.8°F 32.0°F 93% 30.31 in 0.8 miles NNW 3.5 mph - N/A   Overcast
8:53 AM 34.0°F 32.0°F 92% 30.32 in 0.5 miles Calm Calm - N/A Fog Fog
9:14 AM 35.6°F 35.6°F 100% 30.31 in 0.2 miles NNW 3.5 mph - N/A Fog Fog
9:53 AM 37.0°F 36.0°F 96% 30.32 in 0.2 miles NW 4.6 mph - N/A Fog Fog
10:26 AM 39.2°F 37.4°F 93% 30.31 in 0.8 miles Calm Calm - N/A   Overcast
10:41 AM 39.2°F 37.4°F 93% 30.31 in 1.5 miles Calm Calm - N/A   Overcast
10:45 AM 39.2°F 37.4°F 93% 30.31 in 3.0 miles West 3.5 mph - N/A   Overcast
10:53 AM 39.0°F 37.9°F 96% 30.32 in 6.0 miles WNW 3.5 mph - N/A   Mostly Cloudy
11:04 AM 41.0°F 39.2°F 93% 30.31 in 9.0 miles West 3.5 mph - N/A   Scattered Clouds
11:53 AM 46.0°F 39.9°F 79% 30.30 in 10.0 miles NNW 3.5 mph - N/A   Clear
12:53 PM 48.0°F 37.9°F 68% 30.29 in 10.0 miles WSW 3.5 mph - N/A   Clear
1:53 PM 53.1°F 39.9°F 61% 30.27 in 10.0 miles Calm Calm - N/A   Clear
2:53 PM 55.0°F 39.0°F 55% 30.27 in 10.0 miles ESE 4.6 mph - N/A   Clear
3:53 PM 54.0°F 37.9°F 55% 30.27 in 10.0 miles SE 9.2 mph - N/A   Clear
4:53 PM 51.1°F 37.9°F 61% 30.27 in 10.0 miles East 4.6 mph - N/A   Clear
5:53 PM 48.0°F 39.0°F 71% 30.27 in 10.0 miles ESE 3.5 mph - N/A   Clear
6:53 PM 46.0°F 37.9°F 73% 30.26 in 10.0 miles Calm Calm - N/A   Clear
7:53 PM 43.0°F 37.0°F 80% 30.27 in 10.0 miles Calm Calm - N/A   Clear
9:53 PM 36.0°F 33.1°F 89% 30.28 in 10.0 miles Calm Calm - N/A   Clear
10:53 PM 36.0°F 33.1°F 89% 30.30 in 10.0 miles Calm Calm - N/A   Clear
11:53 PM 35.1°F 33.1°F 92% 30.31 in 10.0 miles Calm Calm - N/A   Clear
Moon Phase
Feb. 02 Feb. 03 Feb. 10 Feb. 17 Feb. 25
Sunrise:07:30 AM (PST) Moon Rise:No Moon Rise/
Sunset:05:19 PM (PST) Moon Set:10:20 AM (PST)

Copyright © 2014 The Weather Underground, Inc.